Location: Riedlingen
(48.1569°N, 9.4757°E)
Time: 19:57:54
(UTC+01:00)

Envisat - Visible Passes

Search period start: 21 November 2017 00:00
Search period end: 01 December 2017 00:00
Orbit: 764 x 766 km, 98.2° (Epoch: 21 November)

Date Brightness Start Highest point End Pass type
(mag) Time Alt. Az. Time Alt. Az. Time Alt. Az.
21 Nov 5.1 18:35:46 12° NNE 18:35:46 12° NNE 18:36:19 10° NNE visible
21 Nov 5.6 20:15:58 12° NNW 20:15:58 12° NNW 20:16:23 10° NNW visible
22 Nov 5.3 19:38:55 14° N 19:38:55 14° N 19:39:36 10° N visible
23 Nov 5.1 19:01:51 13° N 19:01:51 13° N 19:02:29 10° N visible
24 Nov 5.2 18:24:47 10° NNE 18:24:47 10° NNE 18:24:51 10° NNE visible
24 Nov 5.5 20:04:59 12° NNW 20:04:59 12° NNW 20:05:17 10° NNW visible
25 Nov 5.3 19:27:55 13° N 19:27:55 13° N 19:28:24 10° N visible
26 Nov 5.2 18:50:50 11° N 18:50:50 11° N 18:51:10 10° N visible
27 Nov 5.5 19:53:57 11° N 19:53:57 11° N 19:54:09 10° N visible
28 Nov 5.3 19:16:53 11° N 19:16:53 11° N 19:17:10 10° N visible
29 Nov 5.3 18:39:47 10° NNE 18:39:47 10° NNE 18:39:48 10° NNE visible
30 Nov 5.5 19:42:55 10° N 19:42:55 10° N 19:42:59 10° N visible
